Wind_Speed
36 35 34 33 36 37 37 37 37 37 36 35 33 32 33 35 38 40 42 45 48 52 57 59 63 67 70 74 75 78 83 86 87 93 97 99 103 106 111 115 117 118 116
38 38 38 37 40 42 40 40 40 39 38 37 35 37 39 41 43 45 48 51 54 58 60 62 68 72 75 78 80 82 88 90 92 96 100 102 105 111 115 120 115 120 121
41 41 41 40 40 42 40 40 42 42 42 41 39 42 45 46 48 51 53 57 59 61 64 69 72 77 79 81 83 86 91 95 96 100 104 105 108 113 116 120 126 127 133
45 44 44 43 43 44 44 45 47 47 47 47 48 50 52 54 55 57 59 61 63 66 69 72 76 80 83 85 86 90 94 98 101 105 108 109 110 116 119 127 128 131 128
49 48 49 48 47 47 49 49 50 50 51 53 55 57 57 58 59 62 65 66 68 70 72 76 79 83 86 88 91 92 98 100 105 109 112 116 117 122 127 134 130 130 131
52 53 55 54 53 54 55 56 55 55 56 55 58 59 59 60 62 66 69 69 72 74 77 80 83 86 89 90 94 96 101 102 106 110 115 117 120 125 127 130 133 134 129
58 60 60 60 59 61 61 61 60 59 60 59 60 61 63 64 66 70 71 72 74 77 81 83 85 89 91 94 99 100 104 107 110 114 117 119 121 124 127 130 132 138 138
66 66 66 66 66 67 66 67 65 63 63 62 65 66 66 68 70 73 74 75 78 81 84 86 88 90 94 98 102 105 108 111 113 118 119 121 124 127 126 130 135 142 139
72 73 73 74 73 71 71 71 70 68 67 67 67 68 68 70 72 75 77 78 81 84 86 88 90 94 97 102 105 108 112 115 117 122 124 125 128 132 136 140 143 141 142
77 78 78 76 75 75 76 76 74 73 72 72 71 71 71 74 77 79 80 82 86 87 89 92 95 97 101 105 108 111 114 118 121 125 128 130 133 139 139 137 141 144 147
80 79 78 76 76 76 77 77 77 77 76 75 75 75 76 80 81 82 84 87 90 91 93 97 98 101 105 109 111 113 117 119 123 127 131 133 137 140 138 143 144 146 148
83 81 80 79 79 79 80 79 79 79 79 79 80 80 81 85 87 88 90 92 93 94 97 100 102 106 109 112 114 116 120 121 125 129 132 136 140 141 145 144 145 148 147
86 86 85 84 84 82 81 81 81 83 84 84 85 86 88 91 92 92 94 95 97 100 102 104 106 110 113 116 118 121 122 125 127 130 133 138 140 144 147 144 144 148 150
93 92 92 90 89 89 90 89 90 90 90 91 92 92 93 94 94 98 99 100 102 103 106 109 111 114 117 120 121 123 125 127 130 132 133 138 141 143 144 147 149 150 149
101 100 99 98 97 96 96 95 95 95 95 95 96 97 98 98 101 102 103 104 106 108 110 114 116 119 121 123 124 125 128 129 133 135 139 139 145 149 149 151 150 151 146
107 106 105 104 104 102 101 101 100 101 101 100 100 101 102 103 106 106 107 109 110 112 115 117 120 122 124 124 126 128 130 133 136 138 139 144 141 149 151 149 151 150 151
112 111 108 108 107 106 105 105 104 104 104 104 105 106 107 109 109 110 112 114 115 117 120 121 124 125 126 128 128 130 132 136 138 141 140 144 151 148 149 148 150 153 150
116 114 113 112 112 111 110 109 109 109 109 109 110 111 111 113 115 116 116 118 121 122 124 126 126 127 129 129 130 133 135 136 138 144 147 149 149 148 148 152 153 147 151
121 120 119 118 117 116 115 114 113 113 115 115 116 117 119 120 121 122 123 125 125 125 127 127 128 130 129 130 130 134 139 141 143 144 148 151 151 147 150 151 150 153 139
119 122 123 123 123 122 122 122 121 121 121 122 123 124 124 126 125 126 126 126 128 127 128 131 129 129 129 130 132 138 139 143 146 147 150 150 149 151 152 149 146 143 141
114 118 119 120 120 122 123 124 125 125 124 123 122 122 121 123 123 124 125 123 125 129 126 127 130 127 132 133 137 141 143 146 149 149 145 145 149 155 152 145 146 142 139
114 114 121 121 120 119 118 118 117 116 117 119 120 117 117 117 118 119 119 118 120 124 126 125 130 131 133 138 140 143 145 147 148 147 146 152 151 150 147 146 140 139 141
119 118 116 116 115 117 122 122 122 121 121 119 119 117 113 114 114 114 114 116 118 123 126 128 131 133 136 140 144 146 146 148 146 149 151 154 155 155 153 142 144 143 127
125 123 121 120 115 115 115 116 117 115 114 115 116 116 115 115 116 117 119 120 124 126 130 134 138 136 139 143 147 149 149 152 152 154 156 156 155 148 148 141 136 132 116
129 127 124 123 124 123 122 120 118 118 118 119 119 119 119 121 121 122 125 126 131 135 135 137 139 138 142 144 146 148 151 153 155 156 155 155 154 150 144 143 140 129 107
134 130 129 129 130 130 129 127 126 124 124 124 125 125 125 125 127 127 129 132 136 138 136 139 143 144 147 147 149 152 154 152 153 153 155 149 149 145 143 136 120 106 95
Wind_Direction
229 233 236 240 240 245 252 257 258 262 263 267 270 274 279 285 292 297 300 305 310 313 316 319 322 323 325 328 330 332 334 334 334 335 335 337 338 339 340 340 343 345 346
237 239 242 244 246 249 251 253 256 258 262 266 269 274 281 287 294 298 300 305 309 313 314 316 320 322 324 327 328 331 331 332 334 334 334 335 335 338 341 341 341 344 345
234 238 239 241 244 247 251 256 261 262 265 268 272 278 285 290 295 298 302 305 308 310 313 315 319 320 323 325 326 328 330 331 332 333 333 333 335 337 339 340 342 343 345
235 239 243 246 249 254 256 260 264 267 269 272 275 280 286 289 293 297 299 302 305 309 311 315 317 319 321 323 324 326 328 329 331 332 332 331 335 335 338 339 342 343 344
242 246 249 251 254 258 261 263 267 270 274 276 278 282 286 289 294 296 299 301 304 308 310 313 316 317 318 320 321 324 326 328 331 330 330 332 334 335 338 340 339 345 343
246 249 252 255 257 260 262 265 268 271 275 280 281 283 286 290 293 295 299 301 304 306 310 311 314 315 316 317 319 323 324 327 328 330 329 332 334 334 338 339 342 342 343
249 251 253 256 258 260 263 266 268 271 275 279 281 284 286 289 292 295 298 301 303 306 307 309 311 313 314 317 318 321 323 326 327 329 329 330 332 333 336 340 343 344 343
249 251 254 256 258 261 264 267 270 273 276 279 281 283 287 289 292 295 298 299 302 303 305 308 310 312 313 315 317 320 323 325 327 327 327 329 331 332 335 335 341 342 342
249 251 253 256 258 262 266 269 272 275 277 278 281 283 286 287 291 293 294 298 300 301 304 306 308 310 312 314 316 319 323 324 325 325 326 329 330 330 334 336 340 341 343
251 252 254 257 261 264 266 269 272 274 275 278 280 283 285 287 289 291 294 297 298 300 303 305 307 309 311 313 316 319 321 322 323 324 325 327 329 332 334 336 340 341 341
253 255 257 259 261 263 265 268 270 273 276 278 281 283 285 286 289 292 295 296 297 299 302 303 306 308 310 313 315 318 319 321 323 323 324 327 329 332 335 338 339 339 339
253 255 257 259 261 264 266 269 272 274 277 279 281 283 285 287 289 291 293 294 297 298 300 302 305 307 309 312 314 317 319 319 320 322 324 324 328 329 333 336 339 338 338
252 255 257 259 261 263 266 268 271 273 276 279 280 282 284 286 288 290 291 293 296 297 300 302 304 306 309 311 314 315 317 317 319 321 323 325 327 329 331 335 338 337 338
251 254 256 259 261 263 266 268 270 273 275 277 278 280 282 284 287 288 290 292 293 297 299 301 303 306 308 310 312 314 315 317 318 319 324 324 327 330 331 334 335 334 335
251 253 255 257 259 261 263 266 268 270 271 274 276 278 281 282 284 286 288 291 294 296 297 300 303 305 307 308 310 311 314 314 317 317 320 324 326 328 330 332 332 334 333
251 253 255 257 259 261 262 265 266 269 271 273 275 277 279 282 283 286 289 290 293 294 297 300 302 303 304 306 308 311 313 313 315 317 318 322 324 326 328 330 331 333 333
249 251 254 256 258 261 263 265 267 269 271 273 274 277 279 281 284 286 288 290 292 293 297 298 300 301 303 305 308 309 311 312 313 315 317 319 322 324 328 329 330 331 332
249 251 253 255 257 260 263 265 267 268 270 272 274 277 279 281 282 285 287 288 290 293 294 296 297 299 301 304 307 308 309 309 311 316 316 318 323 325 326 327 330 330 330
247 250 252 255 256 258 261 263 265 267 268 270 272 274 276 279 281 282 285 287 289 290 292 295 295 298 301 303 304 306 306 311 311 313 316 319 321 323 324 327 327 330 329
247 249 250 252 254 257 259 261 263 265 268 271 273 275 277 278 279 281 283 284 286 290 290 292 296 297 300 302 303 304 306 309 311 314 315 319 320 323 323 325 327 327 329
249 249 250 252 254 255 257 260 263 265 268 269 271 272 274 276 277 279 283 285 285 288 291 292 295 297 299 301 301 305 305 307 309 313 317 318 319 321 323 324 326 327 328
248 250 252 253 254 256 259 260 262 264 267 269 272 275 276 277 278 280 282 284 285 287 290 290 293 296 297 299 300 302 303 307 309 314 314 317 319 321 322 322 323 325 326
247 248 250 253 256 258 259 261 263 265 267 271 273 274 276 278 280 282 283 284 284 287 288 291 292 293 295 299 301 301 303 306 309 311 313 316 317 319 320 322 322 324 324
247 250 251 252 253 255 257 260 262 265 266 268 271 273 275 277 279 280 281 283 284 286 287 289 293 295 294 296 299 301 304 306 309 312 314 315 318 319 320 321 322 323 322
246 248 251 253 254 256 257 258 259 262 265 267 269 271 273 275 277 279 280 281 283 285 288 290 291 293 293 294 298 301 302 305 310 309 313 314 317 318 319 320 320 322 320
245 247 250 252 254 255 256 257 259 261 262 265 267 269 271 272 275 276 277 280 281 284 287 288 290 292 294 297 298 300 302 305 308 310 312 315 315 316 318 320 320 319 317
Height
10849 10852 10854 10855 10857 10857 10858 10858 10858 10858 10858 10857 10856 10854 10852 10850 10847 10844 10839 10834 10830 10824 10817 10811 10804 10797 10790 10781 10773 10764 10755 10746 10734 10716 10703 10690 10675 10662 10644 10628 10615 10596 10575
10842 10845 10846 10848 10849 10849 10850 10850 10849 10849 10849 10848 10848 10846 10843 10840 10837 10834 10829 10824 10819 10813 10806 10799 10792 10784 10777 10767 10758 10750 10739 10729 10718 10705 10688 10675 10659 10645 10632 10612 10595 10577 10558
10835 10837 10839 10840 10841 10841 10842 10842 10841 10841 10840 10839 10838 10835 10833 10830 10826 10822 10818 10813 10808 10801 10794 10787 10780 10770 10763 10754 10745 10735 10724 10713 10702 10689 10676 10661 10646 10631 10616 10595 10575 10552 10538
10827 10829 10830 10831 10831 10833 10833 10832 10831 10831 10830 10829 10827 10825 10822 10819 10816 10811 10807 10802 10797 10790 10783 10775 10766 10757 10748 10739 10731 10721 10709 10697 10686 10673 10659 10644 10633 10616 10601 10588 10560 10537 10516
10817 10819 10818 10820 10821 10822 10821 10821 10820 10820 10819 10818 10816 10813 10811 10808 10804 10799 10795 10790 10783 10777 10770 10761 10753 10744 10734 10725 10715 10707 10695 10684 10671 10656 10641 10627 10612 10595 10580 10564 10547 10527 10504
10807 10807 10806 10807 10807 10807 10807 10807 10809 10808 10807 10807 10803 10802 10799 10795 10792 10786 10782 10776 10769 10762 10755 10747 10740 10730 10721 10711 10701 10692 10682 10672 10658 10644 10627 10613 10595 10580 10567 10548 10530 10511 10501
10794 10793 10793 10793 10794 10793 10792 10792 10794 10795 10795 10794 10792 10789 10786 10783 10778 10772 10768 10762 10755 10749 10741 10733 10725 10715 10705 10694 10684 10675 10665 10654 10641 10629 10611 10597 10583 10569 10556 10536 10515 10494 10469
10778 10778 10778 10778 10778 10778 10779 10778 10780 10782 10782 10781 10778 10775 10772 10767 10763 10757 10753 10747 10741 10734 10726 10718 10710 10700 10689 10678 10668 10657 10647 10635 10624 10610 10595 10580 10566 10553 10537 10520 10503 10479 10452
10761 10762 10761 10761 10762 10765 10765 10764 10766 10767 10767 10765 10763 10760 10758 10752 10748 10742 10737 10732 10726 10718 10711 10703 10694 10685 10675 10665 10653 10640 10629 10615 10604 10589 10574 10562 10545 10530 10515 10496 10477 10458 10439
10740 10741 10743 10747 10749 10750 10748 10747 10749 10749 10749 10747 10746 10744 10741 10735 10731 10725 10721 10715 10708 10702 10694 10686 10678 10669 10660 10650 10639 10627 10612 10598 10584 10570 10555 10543 10528 10510 10494 10478 10458 10440 10418
10723 10727 10729 10731 10731 10731 10729 10730 10730 10730 10731 10731 10729 10726 10723 10716 10712 10709 10704 10697 10690 10685 10677 10668 10661 10652 10642 10632 10622 10610 10598 10583 10569 10551 10535 10520 10502 10490 10472 10459 10439 10419 10402
10704 10706 10708 10711 10713 10714 10714 10713 10713 10712 10712 10712 10710 10708 10704 10697 10693 10691 10685 10678 10672 10666 10658 10651 10643 10634 10624 10613 10602 10592 10581 10569 10552 10536 10521 10505 10490 10473 10459 10439 10422 10400 10382
10684 10687 10690 10693 10695 10696 10697 10697 10695 10694 10694 10693 10690 10688 10684 10678 10675 10670 10664 10659 10653 10645 10640 10631 10624 10614 10604 10593 10583 10573 10562 10548 10534 10519 10505 10490 10476 10460 10444 10425 10406 10386 10364
10663 10666 10669 10672 10674 10676 10677 10677 10677 10675 10673 10672 10670 10667 10662 10659 10655 10647 10644 10640 10632 10627 10619 10610 10603 10594 10582 10573 10565 10554 10541 10528 10514 10500 10488 10473 10459 10444 10426 10413 10394 10371 10351
10637 10641 10644 10647 10649 10652 10653 10654 10655 10652 10650 10651 10648 10644 10641 10638 10631 10628 10623 10618 10613 10606 10597 10590 10582 10572 10563 10554 10545 10534 10523 10508 10496 10483 10470 10455 10440 10425 10409 10394 10377 10357 10337
10610 10614 10618 10620 10622 10624 10627 10628 10628 10627 10625 10627 10624 10621 10618 10615 10608 10606 10602 10596 10591 10583 10575 10569 10560 10551 10543 10534 10524 10515 10502 10489 10476 10465 10451 10439 10422 10410 10394 10378 10360 10342 10322
10584 10587 10591 10593 10596 10599 10601 10603 10603 10603 10601 10601 10598 10596 10593 10590 10588 10584 10578 10573 10568 10559 10554 10546 10538 10531 10522 10513 10504 10493 10481 10470 10457 10443 10432 10419 10409 10394 10378 10362 10345 10326 10306
10556 10560 10564 10567 10570 10573 10576 10577 10578 10578 10576 10576 10575 10572 10570 10567 10564 10561 10555 10549 10544 10538 10532 10524 10516 10509 10500 10494 10482 10470 10459 10447 10435 10425 10414 10400 10388 10375 10359 10344 10328 10308 10289
10527 10532 10536 10541 10544 10546 10549 10551 10552 10552 10550 10550 10550 10548 10545 10543 10540 10535 10529 10526 10521 10516 10508 10500 10494 10486 10479 10471 10460 10448 10434 10426 10415 10404 10392 10380 10368 10354 10339 10322 10306 10291 10270
10496 10501 10506 10511 10514 10518 10519 10520 10522 10523 10523 10524 10524 10523 10522 10519 10513 10509 10505 10502 10497 10491 10482 10478 10472 10462 10455 10446 10436 10422 10413 10404 10395 10383 10374 10361 10345 10331 10316 10304 10288 10271 10254
10462 10470 10477 10482 10486 10487 10493 10497 10497 10498 10499 10499 10497 10497 10496 10492 10487 10485 10482 10476 10470 10467 10458 10451 10446 10438 10432 10423 10412 10404 10392 10381 10373 10362 10352 10339 10325 10310 10295 10281 10267 10249 10234
10434 10441 10443 10450 10459 10463 10465 10468 10472 10473 10473 10472 10470 10471 10469 10466 10461 10459 10455 10449 10443 10438 10432 10425 10421 10415 10408 10399 10391 10380 10369 10361 10352 10342 10330 10318 10303 10290 10273 10260 10246 10229 10216
10404 10409 10417 10425 10431 10437 10441 10441 10442 10444 10444 10443 10443 10442 10441 10438 10436 10433 10428 10423 10417 10412 10405 10399 10394 10389 10382 10374 10366 10356 10347 10339 10329 10319 10307 10294 10278 10265 10251 10237 10223 10210 10191
10373 10382 10390 10396 10400 10404 10411 10414 10415 10414 10414 10415 10416 10415 10413 10412 10409 10406 10401 10397 10391 10387 10381 10373 10366 10365 10356 10347 10340 10331 10323 10311 10303 10295 10282 10269 10254 10240 10228 10214 10198 10185 10171
10347 10352 10359 10366 10369 10373 10377 10381 10384 10386 10387 10388 10388 10387 10387 10386 10383 10380 10375 10370 10364 10357 10355 10348 10340 10337 10327 10320 10315 10307 10297 10289 10280 10269 10256 10246 10228 10214 10202 10190 10175 10162 10149
10316 10323 10329 10334 10336 10339 10343 10349 10355 10358 10359 10359 10359 10359 10358 10357 10354 10351 10348 10343 10336 10332 10329 10322 10313 10307 10299 10294 10288 10280 10272 10265 10256 10247 10233 10219 10206 10191 10180 10166 10152 10140 10128